This is the latest recevied weather packets stored in our database for station/object KI6PPU. If no packets are shown the sender has not sent any weather packets the latest 10 day(s).
| Time | Temp. | Humidity | Pressure | Rain* | Wind** | Luminosity | Snow |
|---|---|---|---|---|---|---|---|
| 1777579286 | 25.56° C | 50% | 1016 hPa | 0 mm | - | 832 W/m² | - |
| 1777578982 | 25° C | 50% | 1016.1 hPa | 0 mm | - | 818 W/m² | - |
| 1777578678 | 25° C | 53% | 1016 hPa | 0 mm | - | 680 W/m² | - |
| 1777578376 | 25° C | 50% | 1016.1 hPa | 0 mm | - | 511 W/m² | - |
| 1777578073 | 24.44° C | 50% | 1016.3 hPa | 0 mm | - | 532 W/m² | - |
| 1777577768 | 24.44° C | 57% | 1016.2 hPa | 0 mm | - | 771 W/m² | - |
| 1777577464 | 23.89° C | 56% | 1016.2 hPa | 0 mm | - | 751 W/m² | - |
| 1777577162 | 24.44° C | 52% | 1016.2 hPa | 0 mm | - | 800 W/m² | - |
| 1777576858 | 24.44° C | 56% | 1016.3 hPa | 0 mm | - | 851 W/m² | - |
| 1777576557 | 23.33° C | 56% | 1016.4 hPa | 0 mm | - | 779 W/m² | - |
| 1777576253 | 23.33° C | 55% | 1016.7 hPa | 0 mm | - | 820 W/m² | - |
| 1777575950 | 23.89° C | 53% | 1016.4 hPa | 0 mm | - | 853 W/m² | - |
| 1777575646 | 23.89° C | 57% | 1016.3 hPa | 0 mm | - | 751 W/m² | - |
| 1777575342 | 23.89° C | 54% | 1016.5 hPa | 0 mm | - | 431 W/m² | - |
| 1777575038 | 23.89° C | 56% | 1016.6 hPa | 0 mm | - | 744 W/m² | - |
| 1777574734 | 23.89° C | 55% | 1016.6 hPa | 0 mm | - | 842 W/m² | - |
| 1777574432 | 23.33° C | 53% | 1016.6 hPa | 0 mm | - | 836 W/m² | - |
| 1777574127 | 23.89° C | 58% | 1016.7 hPa | 0 mm | - | 858 W/m² | - |
| 1777573823 | 23.89° C | 59% | 1016.6 hPa | 0 mm | - | 778 W/m² | - |
| 1777573518 | 23.89° C | 55% | 1016.6 hPa | 0 mm | - | 608 W/m² | - |
| 1777573215 | 23.33° C | 55% | 1016.8 hPa | 0 mm | - | 601 W/m² | - |
| 1777572911 | 22.78° C | 59% | 1016.6 hPa | 0 mm | - | 681 W/m² | - |
| 1777572607 | 23.33° C | 53% | 1016.5 hPa | 0 mm | - | 815 W/m² | - |
| 1777572307 | 22.22° C | 55% | 1016.6 hPa | 0 mm | - | 800 W/m² | - |
| 1777572004 | 22.78° C | 59% | 1016.6 hPa | 0 mm | - | 888 W/m² | - |
* Rain latest hour (hover to see other rain measurements)
** Current wind speed in m/s (hover to see current wind gust speed)